Time,TemperatureF,DewpointF,PressureIn,WindDirection,WindDirectionDegrees,WindSpeedMPH,WindSpeedGustMPH,Humidity,HourlyPrecipIn,Conditions,Clouds,dailyrainin,SolarRadiationWatts/m^2,SoftwareType,DateUTC
2013-08-10 00:07:00,64.0,64.0,29.69,SW,215,1.0,4.0,100,0.00,RA,FEW,0.00,0.0,WeatherDisplay:10.37,2013-08-10 04:07:00,
2013-08-10 00:17:00,63.9,63.9,29.69,SW,225,0.0,1.0,100,0.00,SCT,FEW,0.00,0.0,WeatherDisplay:10.37,2013-08-10 04:17:00,
2013-08-10 00:22:00,63.9,63.9,29.69,SW,226,0.0,0.0,100,0.00,SCT,FEW,0.00,0.0,WeatherDisplay:10.37,2013-08-10 04:22:00,
2013-08-10 00:27:00,63.9,63.9,29.69,SW,226,0.0,2.0,100,0.00,SCT,FEW,0.00,0.0,WeatherDisplay:10.37,2013-08-10 04:27:00,
2013-08-10 00:32:00,63.9,63.9,29.69,SW,224,0.0,3.0,100,0.00,SCT,FEW,0.00,0.0,WeatherDisplay:10.37,2013-08-10 04:32:00,
2013-08-10 00:37:00,63.9,63.9,29.69,SW,225,0.0,0.0,100,0.00,SCT,FEW,0.00,0.0,WeatherDisplay:10.37,2013-08-10 04:37:00,
2013-08-10 00:42:00,63.9,63.9,29.69,SW,225,0.0,1.0,100,0.00,SCT,FEW,0.00,0.0,WeatherDisplay:10.37,2013-08-10 04:42:00,
2013-08-10 00:47:00,63.9,63.9,29.69,SW,225,0.0,2.0,100,0.00,SCT,FEW,0.00,0.0,WeatherDisplay:10.37,2013-08-10 04:47:00,
2013-08-10 00:52:00,63.8,63.8,29.69,SW,225,0.0,1.0,100,0.00,SCT,FEW,0.00,0.0,WeatherDisplay:10.37,2013-08-10 04:52:00,
2013-08-10 00:57:00,63.8,63.8,29.69,SW,225,0.0,1.0,100,0.00,SCT,FEW,0.00,0.0,WeatherDisplay:10.37,2013-08-10 04:57:00,
2013-08-10 01:07:00,63.7,63.7,29.70,SW,225,0.0,1.0,100,0.00,BKN,FEW,0.00,0.0,WeatherDisplay:10.37,2013-08-10 05:07:00,
2013-08-10 01:17:00,63.5,63.5,29.69,SW,226,0.0,2.0,100,0.00,BKN,FEW,0.00,0.0,WeatherDisplay:10.37,2013-08-10 05:17:00,
2013-08-10 01:22:00,63.4,63.4,29.70,WSW,238,0.0,5.0,100,0.00,BKN,FEW,0.00,0.0,WeatherDisplay:10.37,2013-08-10 05:22:00,
2013-08-10 01:27:00,63.3,63.3,29.69,SW,230,1.0,5.0,100,0.00,BKN,FEW,0.00,0.0,WeatherDisplay:10.37,2013-08-10 05:27:00,
2013-08-10 01:32:00,63.1,63.1,29.69,South,185,0.0,2.0,100,0.00,SCT,FEW,0.00,0.0,WeatherDisplay:10.37,2013-08-10 05:32:00,
2013-08-10 01:37:00,63.1,63.1,29.69,South,171,0.0,2.0,100,0.00,SCT,FEW,0.00,0.0,WeatherDisplay:10.37,2013-08-10 05:37:00,
2013-08-10 01:42:00,63.0,63.0,29.69,South,182,0.0,2.0,100,0.00,SCT,FEW,0.00,0.0,WeatherDisplay:10.37,2013-08-10 05:42:00,
2013-08-10 01:47:00,63.0,63.0,29.69,SE,133,0.0,5.0,100,0.00,SCT,FEW,0.00,0.0,WeatherDisplay:10.37,2013-08-10 05:47:00,
2013-08-10 01:52:00,62.9,62.9,29.69,SE,127,0.0,1.0,100,0.00,SCT,FEW,0.00,0.0,WeatherDisplay:10.37,2013-08-10 05:52:00,
2013-08-10 01:57:00,62.8,62.8,29.69,SE,127,0.0,2.0,100,0.00,SCT,FEW,0.00,0.0,WeatherDisplay:10.37,2013-08-10 05:57:00,
2013-08-10 02:07:00,62.7,62.7,29.70,SE,128,0.0,1.0,100,0.00,SCT,FEW,0.00,0.0,WeatherDisplay:10.37,2013-08-10 06:07:00,
2013-08-10 02:17:00,62.6,62.6,29.69,SE,127,0.0,1.0,100,0.00,BKN,FEW,0.00,0.0,WeatherDisplay:10.37,2013-08-10 06:17:00,
2013-08-10 02:22:00,62.5,62.5,29.69,SE,127,0.0,1.0,100,0.00,BKN,FEW,0.00,0.0,WeatherDisplay:10.37,2013-08-10 06:22:00,
2013-08-10 02:27:00,62.4,62.4,29.69,SE,128,0.0,1.0,100,0.00,BKN,FEW,0.00,0.0,WeatherDisplay:10.37,2013-08-10 06:27:00,
2013-08-10 02:32:00,62.4,62.4,29.69,SSE,147,1.0,4.0,100,0.00,BKN,FEW,0.00,0.0,WeatherDisplay:10.37,2013-08-10 06:32:00,
2013-08-10 02:37:00,62.4,62.4,29.69,SW,216,0.0,3.0,100,0.00,BKN,FEW,0.00,0.0,WeatherDisplay:10.37,2013-08-10 06:37:00,
2013-08-10 02:42:00,62.4,62.4,29.70,SSW,204,1.0,5.0,100,0.00,BKN,FEW,0.00,0.0,WeatherDisplay:10.37,2013-08-10 06:42:00,
2013-08-10 02:47:00,62.5,62.5,29.70,SW,219,0.0,3.0,100,0.00,BKN,FEW,0.00,0.0,WeatherDisplay:10.37,2013-08-10 06:47:00,
2013-08-10 02:52:00,62.5,62.5,29.70,SW,219,2.0,7.0,100,0.00,BKN,FEW,0.00,0.0,WeatherDisplay:10.37,2013-08-10 06:52:00,
2013-08-10 02:57:00,62.5,62.5,29.70,WSW,242,1.0,3.0,100,0.00,BKN,FEW,0.00,0.0,WeatherDisplay:10.37,2013-08-10 06:57:00,
2013-08-10 03:07:00,62.4,62.4,29.70,SSW,196,1.0,9.0,100,0.00,OVC,FEW,0.00,0.0,WeatherDisplay:10.37,2013-08-10 07:07:00,
2013-08-10 03:17:00,62.3,62.3,29.70,West,281,0.0,10.0,100,0.00,OVC,FEW,0.00,0.0,WeatherDisplay:10.37,2013-08-10 07:17:00,
2013-08-10 03:22:00,62.3,62.3,29.70,SW,222,0.0,4.0,100,0.00,OVC,FEW,0.00,0.0,WeatherDisplay:10.37,2013-08-10 07:22:00,
2013-08-10 03:27:00,62.3,61.5,29.71,SW,219,0.0,10.0,97,0.00,OVC,FEW,0.00,0.0,WeatherDisplay:10.37,2013-08-10 07:27:00,
2013-08-10 03:32:00,62.3,61.4,29.70,SW,216,0.0,3.0,97,0.00,OVC,FEW,0.00,0.0,WeatherDisplay:10.37,2013-08-10 07:32:00,
2013-08-10 03:37:00,62.2,61.4,29.70,SSE,151,1.0,2.0,97,0.00,OVC,FEW,0.00,0.0,WeatherDisplay:10.37,2013-08-10 07:37:00,
2013-08-10 03:42:00,62.1,61.2,29.70,SW,214,1.0,3.0,97,0.00,OVC,FEW,0.00,0.0,WeatherDisplay:10.37,2013-08-10 07:42:00,
2013-08-10 03:47:00,62.0,61.1,29.70,West,261,1.0,9.0,97,0.00,OVC,FEW,0.00,0.0,WeatherDisplay:10.37,2013-08-10 07:47:00,
2013-08-10 03:52:00,61.9,60.7,29.70,WSW,248,1.0,6.0,96,0.00,OVC,FEW,0.00,0.0,WeatherDisplay:10.37,2013-08-10 07:52:00,
2013-08-10 03:57:00,61.9,60.7,29.71,SW,228,1.0,4.0,96,0.00,OVC,FEW,0.00,0.0,WeatherDisplay:10.37,2013-08-10 07:57:00,
2013-08-10 04:07:00,61.8,60.9,29.70,West,265,0.0,9.0,97,0.00,FEW,FEW,0.00,0.0,WeatherDisplay:10.37,2013-08-10 08:07:00,
2013-08-10 04:17:00,61.6,60.7,29.70,WSW,257,1.0,4.0,97,0.00,FEW,FEW,0.00,0.0,WeatherDisplay:10.37,2013-08-10 08:17:00,
2013-08-10 04:22:00,61.5,60.6,29.70,SW,229,1.0,5.0,97,0.00,FEW,FEW,0.00,0.0,WeatherDisplay:10.37,2013-08-10 08:22:00,
2013-08-10 04:27:00,61.5,60.6,29.71,SSW,212,1.0,8.0,97,0.00,FEW,FEW,0.00,0.0,WeatherDisplay:10.37,2013-08-10 08:27:00,
2013-08-10 04:32:00,61.5,60.6,29.71,SW,215,1.0,5.0,97,0.00,BKN,FEW,0.00,0.0,WeatherDisplay:10.37,2013-08-10 08:32:00,
2013-08-10 04:37:00,61.4,60.5,29.71,SSW,198,0.0,7.0,97,0.00,BKN,FEW,0.00,0.0,WeatherDisplay:10.37,2013-08-10 08:37:00,
2013-08-10 04:42:00,61.4,60.2,29.71,SSW,210,2.0,10.0,96,0.00,BKN,FEW,0.00,0.0,WeatherDisplay:10.37,2013-08-10 08:42:00,
2013-08-10 04:47:00,61.3,60.1,29.71,South,183,2.0,7.0,96,0.00,BKN,FEW,0.00,0.0,WeatherDisplay:10.37,2013-08-10 08:47:00,
2013-08-10 04:52:00,61.1,59.7,29.72,South,169,1.0,7.0,95,0.00,BKN,FEW,0.00,0.0,WeatherDisplay:10.37,2013-08-10 08:52:00,
2013-08-10 04:57:00,60.9,59.5,29.72,South,191,0.0,12.0,95,0.00,BKN,FEW,0.00,0.0,WeatherDisplay:10.37,2013-08-10 08:57:00,
2013-08-10 05:07:00,60.3,58.6,29.72,SE,130,1.0,7.0,94,0.00,SCT,FEW,0.00,0.0,WeatherDisplay:10.37,2013-08-10 09:07:00,
2013-08-10 05:17:00,59.7,58.3,29.72,South,172,1.0,4.0,95,0.00,SCT,FEW,0.00,0.0,WeatherDisplay:10.37,2013-08-10 09:17:00,
2013-08-10 05:22:00,59.4,58.0,29.72,SSW,204,1.0,2.0,95,0.00,SCT,FEW,0.00,0.0,WeatherDisplay:10.37,2013-08-10 09:22:00,
2013-08-10 05:27:00,59.0,57.6,29.73,SSE,161,0.0,3.0,95,0.00,SCT,FEW,0.00,0.0,WeatherDisplay:10.37,2013-08-10 09:27:00,
2013-08-10 05:32:00,58.7,57.3,29.73,WSW,256,1.0,6.0,95,0.00,SCT,FEW,0.00,0.0,WeatherDisplay:10.37,2013-08-10 09:32:00,
2013-08-10 05:37:00,58.4,56.7,29.73,WNW,299,0.0,1.0,94,0.00,SCT,FEW,0.00,0.0,WeatherDisplay:10.37,2013-08-10 09:37:00,
2013-08-10 05:42:00,58.0,56.3,29.73,ENE,66,1.0,3.0,94,0.00,SCT,FEW,0.00,0.0,WeatherDisplay:10.37,2013-08-10 09:42:00,
2013-08-10 05:47:00,58.0,56.0,29.73,West,275,0.0,7.0,93,0.00,SCT,FEW,0.00,0.0,WeatherDisplay:10.37,2013-08-10 09:47:00,
2013-08-10 05:52:00,57.8,55.8,29.73,WNW,295,1.0,5.0,93,0.00,SCT,FEW,0.00,5.0,WeatherDisplay:10.37,2013-08-10 09:52:00,
2013-08-10 05:57:00,57.6,55.5,29.73,WNW,302,1.0,7.0,93,0.00,SCT,FEW,0.00,9.0,WeatherDisplay:10.37,2013-08-10 09:57:00,
2013-08-10 06:07:00,57.1,55.1,29.73,NNW,339,2.0,7.0,93,0.00,CLR,FEW,0.00,9.0,WeatherDisplay:10.37,2013-08-10 10:07:00,
2013-08-10 06:17:00,56.9,55.2,29.73,WNW,299,3.0,10.0,94,0.00,CLR,FEW,0.00,16.0,WeatherDisplay:10.37,2013-08-10 10:17:00,
2013-08-10 06:22:00,56.9,55.2,29.74,WSW,254,1.0,4.0,94,0.00,CLR,FEW,0.00,26.0,WeatherDisplay:10.37,2013-08-10 10:22:00,
2013-08-10 06:27:00,56.7,55.0,29.74,SW,223,1.0,8.0,94,0.00,CLR,FEW,0.00,30.0,WeatherDisplay:10.37,2013-08-10 10:27:00,
2013-08-10 06:32:00,56.7,55.3,29.75,NW,323,0.0,3.0,95,0.00,CLR,FEW,0.00,30.0,WeatherDisplay:10.37,2013-08-10 10:32:00,
2013-08-10 06:37:00,56.7,55.0,29.75,NW,307,2.0,6.0,94,0.00,CLR,FEW,0.00,30.0,WeatherDisplay:10.37,2013-08-10 10:37:00,
2013-08-10 06:42:00,57.0,55.0,29.75,West,260,3.0,10.0,93,0.00,CLR,FEW,0.00,35.0,WeatherDisplay:10.37,2013-08-10 10:42:00,
2013-08-10 06:47:00,57.2,55.5,29.75,WSW,239,0.0,3.0,94,0.00,CLR,FEW,0.00,33.0,WeatherDisplay:10.37,2013-08-10 10:47:00,
2013-08-10 06:52:00,57.3,55.3,29.75,SSW,205,1.0,7.0,93,0.00,CLR,FEW,0.00,42.0,WeatherDisplay:10.37,2013-08-10 10:52:00,
2013-08-10 06:57:00,57.6,55.6,29.75,SE,125,0.0,4.0,93,0.00,CLR,FEW,0.00,114.0,WeatherDisplay:10.37,2013-08-10 10:57:00,
2013-08-10 07:07:00,58.0,55.4,29.75,NNE,33,1.0,4.0,91,0.00,CLR,FEW,0.00,160.0,WeatherDisplay:10.37,2013-08-10 11:07:00,
2013-08-10 07:17:00,58.7,55.8,29.75,NNW,338,0.0,9.0,90,0.00,CLR,FEW,0.00,241.0,WeatherDisplay:10.37,2013-08-10 11:17:00,
2013-08-10 07:22:00,59.3,56.3,29.75,ESE,117,1.0,7.0,90,0.00,CLR,FEW,0.00,118.0,WeatherDisplay:10.37,2013-08-10 11:22:00,
2013-08-10 07:27:00,59.4,56.5,29.75,SW,234,0.0,3.0,90,0.00,CLR,FEW,0.00,190.0,WeatherDisplay:10.37,2013-08-10 11:27:00,
2013-08-10 07:32:00,59.3,56.1,29.75,SE,137,0.0,4.0,89,0.00,CLR,FEW,0.00,142.0,WeatherDisplay:10.37,2013-08-10 11:32:00,
2013-08-10 07:37:00,59.1,55.2,29.75,SE,132,1.0,7.0,87,0.00,CLR,FEW,0.00,88.0,WeatherDisplay:10.37,2013-08-10 11:37:00,
2013-08-10 07:42:00,58.8,55.3,29.76,SE,131,1.0,6.0,88,0.00,CLR,FEW,0.00,93.0,WeatherDisplay:10.37,2013-08-10 11:42:00,
2013-08-10 07:47:00,58.8,54.9,29.76,SSW,197,1.0,7.0,87,0.00,CLR,FEW,0.00,121.0,WeatherDisplay:10.37,2013-08-10 11:47:00,
2013-08-10 07:52:00,58.9,55.4,29.75,SSW,196,2.0,5.0,88,0.00,CLR,FEW,0.00,141.0,WeatherDisplay:10.37,2013-08-10 11:52:00,
2013-08-10 07:57:00,58.8,54.6,29.75,West,267,5.0,14.0,86,0.00,CLR,FEW,0.00,308.0,WeatherDisplay:10.37,2013-08-10 11:57:00,
2013-08-10 08:07:00,59.7,54.5,29.75,ENE,68,5.0,10.0,83,0.00,CLR,FEW,0.00,130.0,WeatherDisplay:10.37,2013-08-10 12:07:00,
2013-08-10 08:17:00,60.1,55.2,29.75,South,170,3.0,7.0,84,0.00,CLR,FEW,0.00,548.0,WeatherDisplay:10.37,2013-08-10 12:17:00,
2013-08-10 08:22:00,60.2,55.0,29.75,SSW,194,2.0,9.0,83,0.00,CLR,FEW,0.00,494.0,WeatherDisplay:10.37,2013-08-10 12:22:00,
2013-08-10 08:27:00,60.4,55.2,29.76,ESE,120,2.0,4.0,83,0.00,CLR,FEW,0.00,127.0,WeatherDisplay:10.37,2013-08-10 12:27:00,
2013-08-10 08:32:00,60.2,54.7,29.76,ENE,60,2.0,13.0,82,0.00,CLR,FEW,0.00,146.0,WeatherDisplay:10.37,2013-08-10 12:32:00,
2013-08-10 08:37:00,59.8,53.6,29.77,ENE,71,2.0,5.0,80,0.00,CLR,FEW,0.00,125.0,WeatherDisplay:10.37,2013-08-10 12:37:00,
2013-08-10 08:42:00,59.8,52.9,29.77,SW,215,2.0,6.0,78,0.00,CLR,FEW,0.00,503.0,WeatherDisplay:10.37,2013-08-10 12:42:00,
2013-08-10 08:47:00,60.2,53.0,29.77,SW,225,5.0,13.0,77,0.00,CLR,FEW,0.00,545.0,WeatherDisplay:10.37,2013-08-10 12:47:00,
2013-08-10 08:52:00,60.5,52.5,29.77,SW,236,3.0,12.0,75,0.00,CLR,FEW,0.00,541.0,WeatherDisplay:10.37,2013-08-10 12:52:00,
2013-08-10 08:57:00,60.7,52.4,29.77,SSW,198,2.0,7.0,74,0.00,CLR,FEW,0.00,503.0,WeatherDisplay:10.37,2013-08-10 12:57:00,
2013-08-10 09:07:00,61.3,52.6,29.77,East,92,1.0,12.0,73,0.00,BKN,FEW,0.00,582.0,WeatherDisplay:10.37,2013-08-10 13:07:00,
2013-08-10 09:17:00,61.2,52.1,29.77,East,101,2.0,12.0,72,0.00,BKN,FEW,0.00,188.0,WeatherDisplay:10.37,2013-08-10 13:17:00,
2013-08-10 09:22:00,61.0,52.3,29.77,ENE,78,1.0,6.0,73,0.00,BKN,FEW,0.00,780.0,WeatherDisplay:10.37,2013-08-10 13:22:00,
2013-08-10 09:27:00,60.8,51.0,29.78,North,354,3.0,12.0,70,0.00,BKN,FEW,0.00,237.0,WeatherDisplay:10.37,2013-08-10 13:27:00,
2013-08-10 09:32:00,60.5,51.4,29.78,NNW,342,1.0,6.0,72,0.00,BKN,FEW,0.00,234.0,WeatherDisplay:10.37,2013-08-10 13:32:00,
2013-08-10 09:37:00,60.6,52.6,29.78,West,270,1.0,6.0,75,0.00,BKN,FEW,0.00,234.0,WeatherDisplay:10.37,2013-08-10 13:37:00,
2013-08-10 09:42:00,60.7,52.7,29.78,SW,236,2.0,5.0,75,0.00,BKN,FEW,0.00,199.0,WeatherDisplay:10.37,2013-08-10 13:42:00,
2013-08-10 09:47:00,60.5,52.2,29.78,SE,144,1.0,10.0,74,0.00,BKN,FEW,0.00,236.0,WeatherDisplay:10.37,2013-08-10 13:47:00,
2013-08-10 09:52:00,61.0,52.7,29.78,SE,133,1.0,7.0,74,0.00,BKN,FEW,0.00,858.0,WeatherDisplay:10.37,2013-08-10 13:52:00,
2013-08-10 09:57:00,61.2,52.1,29.78,SSE,155,1.0,13.0,72,0.00,BKN,FEW,0.00,896.0,WeatherDisplay:10.37,2013-08-10 13:57:00,
2013-08-10 10:07:00,61.1,51.6,29.79,WSW,246,1.0,14.0,71,0.00,FEW,FEW,0.00,909.0,WeatherDisplay:10.37,2013-08-10 14:07:00,
2013-08-10 10:17:00,61.9,52.0,29.79,SE,145,2.0,9.0,70,0.00,FEW,FEW,0.00,279.0,WeatherDisplay:10.37,2013-08-10 14:17:00,
2013-08-10 10:22:00,61.8,51.5,29.79,SW,216,3.0,12.0,69,0.00,FEW,FEW,0.00,868.0,WeatherDisplay:10.37,2013-08-10 14:22:00,
2013-08-10 10:27:00,62.0,51.7,29.79,SSE,168,1.0,10.0,69,0.00,FEW,FEW,0.00,958.0,WeatherDisplay:10.37,2013-08-10 14:27:00,
2013-08-10 10:32:00,62.2,51.9,29.80,SSE,154,2.0,9.0,69,0.00,FEW,FEW,0.00,919.0,WeatherDisplay:10.37,2013-08-10 14:32:00,
2013-08-10 10:37:00,62.4,51.3,29.79,SE,128,3.0,14.0,67,0.00,FEW,FEW,0.00,1030.0,WeatherDisplay:10.37,2013-08-10 14:37:00,
2013-08-10 10:42:00,62.3,51.6,29.79,SSW,206,2.0,10.0,68,0.00,FEW,FEW,0.00,278.0,WeatherDisplay:10.37,2013-08-10 14:42:00,
2013-08-10 10:47:00,61.7,51.4,29.79,SW,224,5.0,9.0,69,0.00,FEW,FEW,0.00,323.0,WeatherDisplay:10.37,2013-08-10 14:47:00,
2013-08-10 10:52:00,61.6,50.5,29.80,West,275,2.0,6.0,67,0.00,FEW,FEW,0.00,926.0,WeatherDisplay:10.37,2013-08-10 14:52:00,
2013-08-10 10:57:00,61.7,51.1,29.80,East,90,1.0,7.0,68,0.00,FEW,FEW,0.00,940.0,WeatherDisplay:10.37,2013-08-10 14:57:00,
2013-08-10 11:07:00,61.3,51.5,29.80,South,184,3.0,12.0,70,0.00,FEW,FEW,0.00,241.0,WeatherDisplay:10.37,2013-08-10 15:07:00,
2013-08-10 11:17:00,61.9,50.0,29.80,NW,306,1.0,12.0,65,0.00,FEW,FEW,0.00,250.0,WeatherDisplay:10.37,2013-08-10 15:17:00,
2013-08-10 11:22:00,61.3,51.0,29.80,NNE,13,0.0,10.0,69,0.00,FEW,FEW,0.00,346.0,WeatherDisplay:10.37,2013-08-10 15:22:00,
2013-08-10 11:27:00,61.1,51.2,29.81,NE,35,2.0,20.0,70,0.00,FEW,FEW,0.00,1181.0,WeatherDisplay:10.37,2013-08-10 15:27:00,
2013-08-10 11:32:00,61.0,51.9,29.81,WNW,284,1.0,12.0,72,0.00,FEW,FEW,0.00,345.0,WeatherDisplay:10.37,2013-08-10 15:32:00,
2013-08-10 11:37:00,60.8,51.3,29.81,West,264,1.0,6.0,71,0.00,FEW,FEW,0.00,301.0,WeatherDisplay:10.37,2013-08-10 15:37:00,
2013-08-10 11:42:00,60.6,50.8,29.81,ENE,64,1.0,6.0,70,0.00,FEW,FEW,0.00,664.0,WeatherDisplay:10.37,2013-08-10 15:42:00,
2013-08-10 11:47:00,61.1,52.0,29.81,NNW,333,2.0,9.0,72,0.00,FEW,FEW,0.00,1114.0,WeatherDisplay:10.37,2013-08-10 15:47:00,
2013-08-10 11:52:00,61.3,51.5,29.81,WNW,292,2.0,6.0,70,0.00,FEW,FEW,0.00,306.0,WeatherDisplay:10.37,2013-08-10 15:52:00,
2013-08-10 11:57:00,61.0,51.1,29.81,SSE,164,1.0,4.0,70,0.00,FEW,FEW,0.00,350.0,WeatherDisplay:10.37,2013-08-10 15:57:00,
2013-08-10 12:07:00,61.2,52.1,29.81,ENE,62,1.0,12.0,72,0.00,CLR,FEW,0.00,283.0,WeatherDisplay:10.37,2013-08-10 16:07:00,
2013-08-10 12:17:00,61.6,50.9,29.81,ESE,106,2.0,12.0,68,0.00,CLR,FEW,0.00,338.0,WeatherDisplay:10.37,2013-08-10 16:17:00,
2013-08-10 12:22:00,61.2,50.9,29.82,NE,48,2.0,5.0,69,0.00,CLR,FEW,0.00,297.0,WeatherDisplay:10.37,2013-08-10 16:22:00,
2013-08-10 12:27:00,60.9,51.4,29.82,ESE,117,2.0,5.0,71,0.00,CLR,FEW,0.00,1232.0,WeatherDisplay:10.37,2013-08-10 16:27:00,
2013-08-10 12:32:00,61.3,51.4,29.82,WSW,255,2.0,12.0,70,0.00,CLR,FEW,0.00,332.0,WeatherDisplay:10.37,2013-08-10 16:32:00,
2013-08-10 12:37:00,61.1,51.6,29.82,NW,315,2.0,7.0,71,0.00,CLR,FEW,0.00,213.0,WeatherDisplay:10.37,2013-08-10 16:37:00,
2013-08-10 12:42:00,61.4,52.3,29.82,NNW,345,1.0,5.0,72,0.00,CLR,FEW,0.00,1127.0,WeatherDisplay:10.37,2013-08-10 16:42:00,
2013-08-10 12:47:00,61.9,51.6,29.82,North,354,1.0,10.0,69,0.00,CLR,FEW,0.00,1238.0,WeatherDisplay:10.37,2013-08-10 16:47:00,
2013-08-10 12:52:00,61.9,51.2,29.82,NW,309,3.0,12.0,68,0.00,CLR,FEW,0.00,232.0,WeatherDisplay:10.37,2013-08-10 16:52:00,
2013-08-10 12:57:00,61.4,51.1,29.83,NW,311,2.0,9.0,69,0.00,CLR,FEW,0.00,232.0,WeatherDisplay:10.37,2013-08-10 16:57:00,
2013-08-10 13:07:00,61.8,51.2,29.83,SE,139,1.0,12.0,68,0.00,CLR,FEW,0.00,250.0,WeatherDisplay:10.37,2013-08-10 17:07:00,
2013-08-10 13:17:00,61.9,50.4,29.83,NNW,341,2.0,8.0,66,0.00,CLR,FEW,0.00,355.0,WeatherDisplay:10.37,2013-08-10 17:17:00,
2013-08-10 13:22:00,61.5,50.4,29.83,North,354,2.0,10.0,67,0.00,CLR,FEW,0.00,322.0,WeatherDisplay:10.37,2013-08-10 17:22:00,
2013-08-10 13:27:00,61.3,50.2,29.84,NW,311,1.0,7.0,67,0.00,CLR,FEW,0.00,294.0,WeatherDisplay:10.37,2013-08-10 17:27:00,
2013-08-10 13:32:00,61.4,50.3,29.84,WNW,286,1.0,7.0,67,0.00,CLR,FEW,0.00,1146.0,WeatherDisplay:10.37,2013-08-10 17:32:00,
2013-08-10 13:37:00,61.9,50.4,29.84,West,281,5.0,12.0,66,0.00,CLR,FEW,0.00,1230.0,WeatherDisplay:10.37,2013-08-10 17:37:00,
2013-08-10 13:42:00,61.9,50.0,29.84,WSW,253,0.0,5.0,65,0.00,CLR,FEW,0.00,1079.0,WeatherDisplay:10.37,2013-08-10 17:42:00,
2013-08-10 13:47:00,62.2,50.7,29.84,WNW,288,2.0,9.0,66,0.00,CLR,FEW,0.00,1125.0,WeatherDisplay:10.37,2013-08-10 17:47:00,
2013-08-10 13:52:00,62.3,51.2,29.84,NW,309,2.0,13.0,67,0.00,CLR,FEW,0.00,1225.0,WeatherDisplay:10.37,2013-08-10 17:52:00,
2013-08-10 13:57:00,62.9,50.5,29.84,SSW,209,1.0,6.0,64,0.00,CLR,FEW,0.00,1271.0,WeatherDisplay:10.37,2013-08-10 17:57:00,
2013-08-10 14:07:00,62.7,49.9,29.84,SW,217,3.0,13.0,63,0.00,CLR,FEW,0.00,1176.0,WeatherDisplay:10.37,2013-08-10 18:07:00,
2013-08-10 14:17:00,63.1,51.2,29.85,WNW,289,1.0,9.0,65,0.00,CLR,FEW,0.00,1239.0,WeatherDisplay:10.37,2013-08-10 18:17:00,
2013-08-10 14:22:00,63.1,50.7,29.85,NNE,29,1.0,10.0,64,0.00,CLR,FEW,0.00,403.0,WeatherDisplay:10.37,2013-08-10 18:22:00,
2013-08-10 14:27:00,62.8,50.8,29.85,ENE,77,2.0,9.0,65,0.00,CLR,FEW,0.00,547.0,WeatherDisplay:10.37,2013-08-10 18:27:00,
2013-08-10 14:32:00,62.3,49.9,29.85,NW,305,1.0,4.0,64,0.00,CLR,FEW,0.00,330.0,WeatherDisplay:10.37,2013-08-10 18:32:00,
2013-08-10 14:37:00,61.7,49.8,29.85,SE,129,3.0,17.0,65,0.00,CLR,FEW,0.00,311.0,WeatherDisplay:10.37,2013-08-10 18:37:00,
2013-08-10 14:42:00,61.3,49.9,29.85,ESE,114,1.0,7.0,66,0.00,CLR,FEW,0.00,257.0,WeatherDisplay:10.37,2013-08-10 18:42:00,
2013-08-10 14:47:00,61.2,50.6,29.85,NNW,327,2.0,5.0,68,0.00,CLR,FEW,0.00,1027.0,WeatherDisplay:10.37,2013-08-10 18:47:00,
2013-08-10 14:52:00,61.6,50.5,29.85,SW,229,2.0,7.0,67,0.00,CLR,FEW,0.00,323.0,WeatherDisplay:10.37,2013-08-10 18:52:00,
2013-08-10 14:57:00,61.7,50.6,29.85,ESE,119,1.0,5.0,67,0.00,CLR,FEW,0.00,285.0,WeatherDisplay:10.37,2013-08-10 18:57:00,
2013-08-10 15:07:00,61.8,50.7,29.85,NNW,338,0.0,6.0,67,0.00,CLR,FEW,0.00,246.0,WeatherDisplay:10.37,2013-08-10 19:07:00,
2013-08-10 15:27:00,60.9,50.7,29.85,NE,44,1.0,10.0,69,0.00,CLR,FEW,0.00,946.0,WeatherDisplay:10.37,2013-08-10 19:27:00,
2013-08-10 15:32:00,61.5,50.8,29.85,ENE,68,0.0,4.0,68,0.00,CLR,FEW,0.00,965.0,WeatherDisplay:10.37,2013-08-10 19:32:00,
2013-08-10 15:37:00,62.4,50.1,29.85,SSW,211,3.0,12.0,64,0.00,CLR,FEW,0.00,244.0,WeatherDisplay:10.37,2013-08-10 19:37:00,
2013-08-10 15:42:00,62.7,50.3,29.86,South,175,1.0,4.0,64,0.00,CLR,FEW,0.00,188.0,WeatherDisplay:10.37,2013-08-10 19:42:00,
2013-08-10 15:47:00,62.4,50.4,29.86,SSW,208,1.0,20.0,65,0.00,CLR,FEW,0.00,186.0,WeatherDisplay:10.37,2013-08-10 19:47:00,
2013-08-10 15:52:00,61.7,49.4,29.86,SW,225,1.0,5.0,64,0.00,CLR,FEW,0.00,288.0,WeatherDisplay:10.37,2013-08-10 19:52:00,
2013-08-10 15:57:00,61.4,49.5,29.86,SE,138,1.0,6.0,65,0.00,CLR,FEW,0.00,128.0,WeatherDisplay:10.37,2013-08-10 19:57:00,
2013-08-10 16:07:00,60.7,50.1,29.86,ENE,63,2.0,10.0,68,0.00,CLR,FEW,0.00,814.0,WeatherDisplay:10.37,2013-08-10 20:07:00,
2013-08-10 16:17:00,60.4,49.0,29.87,SW,222,1.0,12.0,66,0.00,CLR,FEW,0.00,759.0,WeatherDisplay:10.37,2013-08-10 20:17:00,
2013-08-10 16:22:00,60.5,49.1,29.87,WSW,249,2.0,9.0,66,0.00,CLR,FEW,0.00,185.0,WeatherDisplay:10.37,2013-08-10 20:22:00,
2013-08-10 16:27:00,60.3,49.7,29.88,WSW,250,1.0,4.0,68,0.00,CLR,FEW,0.00,258.0,WeatherDisplay:10.37,2013-08-10 20:27:00,
2013-08-10 16:32:00,60.2,50.0,29.88,SSE,163,1.0,4.0,69,0.00,CLR,FEW,0.00,104.0,WeatherDisplay:10.37,2013-08-10 20:32:00,
2013-08-10 16:37:00,60.0,49.8,29.88,North,7,1.0,13.0,69,0.00,CLR,FEW,0.00,118.0,WeatherDisplay:10.37,2013-08-10 20:37:00,
2013-08-10 16:42:00,59.8,50.4,29.88,NW,319,1.0,13.0,71,0.00,CLR,FEW,0.00,160.0,WeatherDisplay:10.37,2013-08-10 20:42:00,
2013-08-10 16:47:00,59.9,50.1,29.88,NNW,327,1.0,6.0,70,0.00,CLR,FEW,0.00,149.0,WeatherDisplay:10.37,2013-08-10 20:47:00,
2013-08-10 16:52:00,60.0,50.6,29.88,NW,312,0.0,5.0,71,0.00,CLR,FEW,0.00,132.0,WeatherDisplay:10.37,2013-08-10 20:52:00,
2013-08-10 16:57:00,59.9,49.7,29.88,NNW,339,1.0,7.0,69,0.00,CLR,FEW,0.00,214.0,WeatherDisplay:10.37,2013-08-10 20:57:00,
2013-08-10 17:07:00,60.2,50.0,29.87,NE,35,1.0,10.0,69,0.00,FEW,FEW,0.00,647.0,WeatherDisplay:10.37,2013-08-10 21:07:00,
2013-08-10 17:17:00,61.3,50.2,29.88,WNW,287,1.0,7.0,67,0.00,FEW,FEW,0.00,93.0,WeatherDisplay:10.37,2013-08-10 21:17:00,
2013-08-10 17:22:00,60.8,49.8,29.88,West,278,2.0,9.0,67,0.00,FEW,FEW,0.00,123.0,WeatherDisplay:10.37,2013-08-10 21:22:00,
2013-08-10 17:27:00,60.2,49.9,29.88,WNW,300,1.0,5.0,69,0.00,FEW,FEW,0.00,121.0,WeatherDisplay:10.37,2013-08-10 21:27:00,
2013-08-10 17:32:00,59.6,49.4,29.88,WNW,294,0.0,5.0,69,0.00,FEW,FEW,0.00,220.0,WeatherDisplay:10.37,2013-08-10 21:32:00,
2013-08-10 17:37:00,59.4,49.6,29.88,West,268,2.0,5.0,70,0.00,FEW,FEW,0.00,200.0,WeatherDisplay:10.37,2013-08-10 21:37:00,
2013-08-10 17:42:00,59.7,50.2,29.88,WSW,250,1.0,3.0,71,0.00,FEW,FEW,0.00,125.0,WeatherDisplay:10.37,2013-08-10 21:42:00,
2013-08-10 17:47:00,59.8,50.0,29.88,WNW,284,2.0,12.0,70,0.00,FEW,FEW,0.00,100.0,WeatherDisplay:10.37,2013-08-10 21:47:00,
2013-08-10 17:52:00,59.5,49.7,29.89,WNW,285,1.0,12.0,70,0.00,FEW,FEW,0.00,128.0,WeatherDisplay:10.37,2013-08-10 21:52:00,
2013-08-10 17:57:00,59.4,49.6,29.89,WSW,244,1.0,5.0,70,0.00,FEW,FEW,0.00,70.0,WeatherDisplay:10.37,2013-08-10 21:57:00,
2013-08-10 18:07:00,58.9,49.5,29.89,West,269,1.0,5.0,71,0.00,CLR,FEW,0.00,123.0,WeatherDisplay:10.37,2013-08-10 22:07:00,
2013-08-10 18:17:00,58.7,49.7,29.89,West,275,1.0,5.0,72,0.00,CLR,FEW,0.00,81.0,WeatherDisplay:10.37,2013-08-10 22:17:00,
2013-08-10 18:22:00,58.6,50.7,29.89,NW,308,0.0,4.0,75,0.00,CLR,FEW,0.00,84.0,WeatherDisplay:10.37,2013-08-10 22:22:00,
2013-08-10 18:27:00,58.5,50.2,29.89,NE,45,0.0,2.0,74,0.00,CLR,FEW,0.00,95.0,WeatherDisplay:10.37,2013-08-10 22:27:00,
2013-08-10 18:32:00,58.4,50.5,29.90,NE,47,0.0,3.0,75,0.00,CLR,FEW,0.00,39.0,WeatherDisplay:10.37,2013-08-10 22:32:00,
2013-08-10 18:42:00,58.0,50.1,29.90,SSW,200,0.0,3.0,75,0.00,CLR,FEW,0.00,33.0,WeatherDisplay:10.37,2013-08-10 22:42:00,
2013-08-10 18:47:00,57.8,49.9,29.90,SSW,201,0.0,3.0,75,0.00,CLR,FEW,0.00,44.0,WeatherDisplay:10.37,2013-08-10 22:47:00,
2013-08-10 18:52:00,57.5,50.0,29.90,WSW,257,0.0,6.0,76,0.00,CLR,FEW,0.00,67.0,WeatherDisplay:10.37,2013-08-10 22:52:00,
2013-08-10 18:57:00,57.4,50.2,29.90,West,265,0.0,2.0,77,0.00,CLR,FEW,0.00,30.0,WeatherDisplay:10.37,2013-08-10 22:57:00,
2013-08-10 19:07:00,57.0,50.5,29.90,SE,141,0.0,5.0,79,0.00,CLR,FEW,0.00,39.0,WeatherDisplay:10.37,2013-08-10 23:07:00,
2013-08-10 19:17:00,56.8,49.7,29.90,SW,230,0.0,1.0,77,0.00,CLR,FEW,0.00,19.0,WeatherDisplay:10.37,2013-08-10 23:17:00,
2013-08-10 19:22:00,56.5,50.1,29.90,South,191,0.0,4.0,79,0.00,CLR,FEW,0.00,21.0,WeatherDisplay:10.37,2013-08-10 23:22:00,
2013-08-10 19:27:00,56.2,49.8,29.90,South,186,0.0,3.0,79,0.00,CLR,FEW,0.00,21.0,WeatherDisplay:10.37,2013-08-10 23:27:00,
2013-08-10 19:32:00,55.9,50.4,29.91,South,189,0.0,1.0,82,0.00,CLR,FEW,0.00,14.0,WeatherDisplay:10.37,2013-08-10 23:32:00,
2013-08-10 19:37:00,55.5,49.4,29.91,South,190,0.0,2.0,80,0.00,CLR,FEW,0.00,12.0,WeatherDisplay:10.37,2013-08-10 23:37:00,
2013-08-10 19:42:00,55.2,49.5,29.91,South,190,0.0,1.0,81,0.00,CLR,FEW,0.00,11.0,WeatherDisplay:10.37,2013-08-10 23:42:00,
2013-08-10 19:47:00,54.9,49.5,29.91,South,190,0.0,0.0,82,0.00,CLR,FEW,0.00,7.0,WeatherDisplay:10.37,2013-08-10 23:47:00,
2013-08-10 19:52:00,54.4,49.4,29.91,South,190,0.0,1.0,83,0.00,CLR,FEW,0.00,5.0,WeatherDisplay:10.37,2013-08-10 23:52:00,
2013-08-10 19:57:00,54.1,49.4,29.91,South,190,0.0,2.0,84,0.00,CLR,FEW,0.00,0.0,WeatherDisplay:10.37,2013-08-10 23:57:00,
2013-08-10 20:07:00,53.7,49.0,29.91,West,265,1.0,2.0,84,0.00,CLR,FEW,0.00,0.0,WeatherDisplay:10.37,2013-08-11 00:07:00,
2013-08-10 20:17:00,53.5,48.8,29.91,WSW,255,0.0,1.0,84,0.00,CLR,FEW,0.00,0.0,WeatherDisplay:10.37,2013-08-11 00:17:00,
2013-08-10 20:22:00,53.3,48.9,29.92,WSW,255,0.0,1.0,85,0.00,CLR,FEW,0.00,0.0,WeatherDisplay:10.37,2013-08-11 00:22:00,
2013-08-10 20:27:00,53.1,48.7,29.92,WSW,254,0.0,1.0,85,0.00,CLR,FEW,0.00,0.0,WeatherDisplay:10.37,2013-08-11 00:27:00,
2013-08-10 20:32:00,53.1,49.0,29.92,WSW,252,0.0,1.0,86,0.00,CLR,FEW,0.00,0.0,WeatherDisplay:10.37,2013-08-11 00:32:00,
2013-08-10 20:37:00,53.0,48.6,29.92,WSW,250,0.0,1.0,85,0.00,CLR,FEW,0.00,0.0,WeatherDisplay:10.37,2013-08-11 00:37:00,
2013-08-10 20:42:00,53.0,49.2,29.93,WSW,249,0.0,1.0,87,0.00,CLR,FEW,0.00,0.0,WeatherDisplay:10.37,2013-08-11 00:42:00,
2013-08-10 20:47:00,53.0,49.2,29.93,WSW,244,0.0,1.0,87,0.00,CLR,FEW,0.00,0.0,WeatherDisplay:10.37,2013-08-11 00:47:00,
2013-08-10 20:52:00,52.9,48.8,29.93,WSW,247,0.0,2.0,86,0.00,CLR,FEW,0.00,0.0,WeatherDisplay:10.37,2013-08-11 00:52:00,
2013-08-10 20:57:00,52.9,48.8,29.93,WSW,256,1.0,3.0,86,0.00,CLR,FEW,0.00,0.0,WeatherDisplay:10.37,2013-08-11 00:57:00,
2013-08-10 21:07:00,52.9,48.8,29.93,WSW,243,0.0,4.0,86,0.00,CLR,FEW,0.00,0.0,WeatherDisplay:10.37,2013-08-11 01:07:00,
2013-08-10 21:17:00,53.6,48.5,29.94,SW,233,1.0,6.0,83,0.00,CLR,FEW,0.00,0.0,WeatherDisplay:10.37,2013-08-11 01:17:00,
2013-08-10 21:22:00,53.7,49.0,29.94,South,189,0.0,4.0,84,0.00,CLR,FEW,0.00,0.0,WeatherDisplay:10.37,2013-08-11 01:22:00,
2013-08-10 21:27:00,53.4,48.7,29.94,SSW,203,0.0,3.0,84,0.00,CLR,FEW,0.00,0.0,WeatherDisplay:10.37,2013-08-11 01:27:00,
2013-08-10 21:32:00,53.1,48.7,29.94,WSW,242,0.0,3.0,85,0.00,CLR,FEW,0.00,0.0,WeatherDisplay:10.37,2013-08-11 01:32:00,
2013-08-10 21:37:00,52.9,48.9,29.94,WSW,239,0.0,1.0,86,0.00,CLR,FEW,0.00,0.0,WeatherDisplay:10.37,2013-08-11 01:37:00,
2013-08-10 21:42:00,52.7,48.6,29.94,WSW,241,0.0,1.0,86,0.00,CLR,FEW,0.00,0.0,WeatherDisplay:10.37,2013-08-11 01:42:00,
2013-08-10 21:47:00,52.5,48.4,29.94,West,268,1.0,5.0,86,0.00,CLR,FEW,0.00,0.0,WeatherDisplay:10.37,2013-08-11 01:47:00,
2013-08-10 21:52:00,52.6,48.5,29.94,WNW,282,0.0,1.0,86,0.00,CLR,FEW,0.00,0.0,WeatherDisplay:10.37,2013-08-11 01:52:00,
2013-08-10 21:57:00,52.5,48.5,29.94,WNW,283,0.0,1.0,86,0.00,CLR,FEW,0.00,0.0,WeatherDisplay:10.37,2013-08-11 01:57:00,
2013-08-10 22:07:00,52.5,48.7,29.94,WNW,284,0.0,1.0,87,0.00,CLR,FEW,0.00,0.0,WeatherDisplay:10.37,2013-08-11 02:07:00,
2013-08-10 22:17:00,52.3,48.5,29.94,West,280,0.0,1.0,87,0.00,CLR,FEW,0.00,0.0,WeatherDisplay:10.37,2013-08-11 02:17:00,
2013-08-10 22:22:00,52.2,48.4,29.94,West,277,0.0,0.0,87,0.00,CLR,FEW,0.00,0.0,WeatherDisplay:10.37,2013-08-11 02:22:00,
2013-08-10 22:27:00,52.2,48.7,29.94,West,277,0.0,0.0,88,0.00,CLR,FEW,0.00,0.0,WeatherDisplay:10.37,2013-08-11 02:27:00,
2013-08-10 22:32:00,52.2,48.4,29.94,West,277,0.0,0.0,87,0.00,CLR,FEW,0.00,0.0,WeatherDisplay:10.37,2013-08-11 02:32:00,
2013-08-10 22:37:00,52.2,48.4,29.94,West,277,0.0,0.0,87,0.00,CLR,FEW,0.00,0.0,WeatherDisplay:10.37,2013-08-11 02:37:00,
2013-08-10 22:42:00,52.3,48.5,29.94,West,273,0.0,2.0,87,0.00,CLR,FEW,0.00,0.0,WeatherDisplay:10.37,2013-08-11 02:42:00,
2013-08-10 22:47:00,52.5,48.4,29.94,WSW,257,0.0,2.0,86,0.00,CLR,FEW,0.00,0.0,WeatherDisplay:10.37,2013-08-11 02:47:00,
2013-08-10 22:52:00,52.6,48.8,29.94,WSW,248,0.0,1.0,87,0.00,CLR,FEW,0.00,0.0,WeatherDisplay:10.37,2013-08-11 02:52:00,
2013-08-10 22:57:00,52.6,48.5,29.94,WSW,247,0.0,0.0,86,0.00,CLR,FEW,0.00,0.0,WeatherDisplay:10.37,2013-08-11 02:57:00,
2013-08-10 23:07:00,52.5,48.5,29.94,SSW,200,0.0,4.0,86,0.00,CLR,FEW,0.00,0.0,WeatherDisplay:10.37,2013-08-11 03:07:00,
2013-08-10 23:22:00,52.4,48.6,29.94,SW,216,0.0,8.0,87,0.00,CLR,FEW,0.00,0.0,WeatherDisplay:10.37,2013-08-11 03:22:00,
2013-08-10 23:27:00,52.3,48.5,29.94,SSW,213,0.0,1.0,87,0.00,CLR,FEW,0.00,0.0,WeatherDisplay:10.37,2013-08-11 03:27:00,
2013-08-10 23:32:00,52.1,48.4,29.94,SSW,213,0.0,2.0,87,0.00,CLR,FEW,0.00,0.0,WeatherDisplay:10.37,2013-08-11 03:32:00,
2013-08-10 23:37:00,52.0,48.3,29.94,SSW,213,0.0,2.0,87,0.00,CLR,FEW,0.00,0.0,WeatherDisplay:10.37,2013-08-11 03:37:00,
2013-08-10 23:42:00,52.0,48.6,29.95,SSW,212,0.0,1.0,88,0.00,CLR,FEW,0.00,0.0,WeatherDisplay:10.37,2013-08-11 03:42:00,
2013-08-10 23:47:00,51.9,48.5,29.94,SSW,211,0.0,0.0,88,0.00,CLR,FEW,0.00,0.0,WeatherDisplay:10.37,2013-08-11 03:47:00,
2013-08-10 23:52:00,51.8,48.4,29.95,SSW,211,0.0,1.0,88,0.00,CLR,FEW,0.00,0.0,WeatherDisplay:10.37,2013-08-11 03:52:00,
2013-08-10 23:57:00,51.8,48.4,29.94,SSW,211,0.0,1.0,88,0.00,CLR,FEW,0.00,0.0,WeatherDisplay:10.37,2013-08-11 03:57:00,